Location: BGSU Observatory
(41.3799°N, 83.6397°W)
Time: 05:36:36
(UTC-04:00)

Tiangong 2 - Visible Passes

Search period start: 25 March 2019 00:00
Search period end: 04 April 2019 00:00
Orbit: 380 x 389 km, 42.8° (Epoch: 25 March)

Date Brightness Start Highest point End Pass type
(mag) Time Alt. Az. Time Alt. Az. Time Alt. Az.
29 Mar 2.9 21:18:59 10° SSW 21:20:30 19° S 21:20:30 19° S visible
30 Mar 3.1 21:55:22 10° WSW 21:56:42 23° SW 21:56:42 23° SW visible
31 Mar 1.8 20:56:04 10° SW 20:58:58 36° SSE 21:00:26 22° ESE visible
31 Mar 4.3 22:32:29 10° W 22:32:41 11° W 22:32:41 11° W visible
01 Apr 0.9 21:32:54 10° WSW 21:36:03 85° SSE 21:36:16 75° E visible
02 Apr 1.2 20:33:25 10° WSW 20:36:31 58° SSE 20:39:36 10° E visible
02 Apr 2.9 22:10:09 10° W 22:11:57 31° WNW 22:11:57 31° WNW visible
03 Apr 1.1 21:10:31 10° W 21:13:39 74° N 21:15:19 25° ENE visible
03 Apr 4.5 22:47:23 10° WNW 22:47:32 11° WNW 22:47:32 11° WNW visible
